• Em Portugal
  • Lista de países
  • Para 7 dias
  • Temperatura da água
  • Mapas de satélite
  • Mapa do tempo
  • Widgets de tempo
  • user-avatar
    Iniciar Sessão

    Previsão horária em Wyzne

    Hoje, 18 Julho, Quarta-feira

    Tempo Temperatura Precipitação Vento Pressão Humidade
    00:00 +18°C° 0,1 mm 3 m/s 734 mmHg 97%
    01:00 +18°C° 0 mm 3 m/s 734 mmHg 97%
    02:00 +18°C° 0,3 mm 3 m/s 734 mmHg 97%
    03:00 +18°C° 0,3 mm 3 m/s 734 mmHg 97%
    04:00 +18°C° 0,3 mm 3 m/s 734 mmHg 97%
    05:00 +19°C° 1 mm 3 m/s 734 mmHg 97%
    06:00 +19°C° 1 mm 3 m/s 734 mmHg 97%
    07:00 +19°C° 1 mm 3 m/s 734 mmHg 97%
    08:00 +19°C° 1,2 mm 2 m/s 734 mmHg 96%
    09:00 +19°C° 1,2 mm 2 m/s 734 mmHg 95%
    10:00 +20°C° 1,2 mm 2 m/s 734 mmHg 94%
    11:00 +21°C° 0,4 mm 2 m/s 734 mmHg 92%
    12:00 +21°C° 0,4 mm 3 m/s 734 mmHg 90%
    13:00 +22°C° 0,4 mm 3 m/s 734 mmHg 88%
    14:00 +22°C° 0,6 mm 3 m/s 734 mmHg 88%
    15:00 +24°C° 0,6 mm 3 m/s 734 mmHg 87%
    16:00 +24°C° 0,6 mm 3 m/s 734 mmHg 86%
    17:00 +24°C° 0,8 mm 3 m/s 734 mmHg 89%
    18:00 +22°C° 0,8 mm 3 m/s 734 mmHg 91%
    19:00 +22°C° 0,8 mm 3 m/s 735 mmHg 93%
    20:00 +21°C° 0,8 mm 2 m/s 735 mmHg 94%
    21:00 +21°C° 0,8 mm 2 m/s 735 mmHg 96%
    22:00 +20°C° 0,8 mm 2 m/s 735 mmHg 97%
    23:00 +20°C° 0,9 mm 2 m/s 735 mmHg 97%

    Amanhã, 19 Julho, Quinta-feira

    Tempo Temperatura Precipitação Vento Pressão Humidade
    00:00 +20°C° 0,9 mm 3 m/s 736 mmHg 98%
    01:00 +20°C° 0,9 mm 3 m/s 736 mmHg 98%
    02:00 +20°C° 0,5 mm 3 m/s 736 mmHg 98%
    03:00 +20°C° 0,5 mm 4 m/s 736 mmHg 98%
    04:00 +20°C° 0,5 mm 4 m/s 736 mmHg 98%
    05:00 +20°C° 0,5 mm 4 m/s 737 mmHg 97%
    06:00 +21°C° 0,5 mm 4 m/s 737 mmHg 96%
    07:00 +21°C° 0,5 mm 4 m/s 737 mmHg 96%
    08:00 +21°C° 0,4 mm 5 m/s 737 mmHg 94%
    09:00 +21°C° 0,4 mm 5 m/s 738 mmHg 93%
    10:00 +22°C° 0,4 mm 5 m/s 738 mmHg 91%
    11:00 +22°C° 0,6 mm 5 m/s 738 mmHg 89%
    12:00 +23°C° 0,6 mm 6 m/s 738 mmHg 87%
    13:00 +24°C° 0,6 mm 6 m/s 738 mmHg 85%
    14:00 +23°C° 0,7 mm 6 m/s 738 mmHg 85%
    15:00 +23°C° 0,7 mm 6 m/s 738 mmHg 85%
    16:00 +23°C° 0,7 mm 5 m/s 738 mmHg 85%
    17:00 +22°C° 0,4 mm 5 m/s 738 mmHg 87%
    18:00 +22°C° 0,4 mm 5 m/s 738 mmHg 88%
    19:00 +21°C° 0,4 mm 5 m/s 738 mmHg 90%
    20:00 +20°C° 0,1 mm 5 m/s 738 mmHg 92%
    21:00 +20°C° 0,1 mm 4 m/s 739 mmHg 93%
    22:00 +19°C° 0,1 mm 4 m/s 739 mmHg 95%
    23:00 +19°C° 0,1 mm 4 m/s 739 mmHg 96%

    Depois de amanhã, 20 Julho, Sexta-feira

    Tempo Temperatura Precipitação Vento Pressão Humidade
    00:00 +19°C° 0,1 mm 4 m/s 739 mmHg 96%
    01:00 +19°C° 0,1 mm 4 m/s 739 mmHg 97%
    02:00 +19°C° 0 mm 4 m/s 739 mmHg 97%
    03:00 +19°C° 0 mm 4 m/s 739 mmHg 97%
    04:00 +19°C° 0 mm 4 m/s 739 mmHg 97%
    05:00 +19°C° 0 mm 4 m/s 739 mmHg 96%
    06:00 +19°C° 0 mm 4 m/s 739 mmHg 94%
    07:00 +20°C° 0 mm 4 m/s 740 mmHg 93%
    08:00 +20°C° 0,1 mm 5 m/s 740 mmHg 90%
    09:00 +21°C° 0,1 mm 5 m/s 740 mmHg 86%
    10:00 +22°C° 0,1 mm 5 m/s 740 mmHg 83%
    11:00 +23°C° 0,1 mm 5 m/s 740 mmHg 77%
    12:00 +25°C° 0,1 mm 5 m/s 740 mmHg 71%
    13:00 +27°C° 0,1 mm 5 m/s 739 mmHg 65%
    14:00 +27°C° 0,1 mm 5 m/s 739 mmHg 66%
    15:00 +27°C° 0,1 mm 5 m/s 739 mmHg 66%
    16:00 +27°C° 0,1 mm 5 m/s 739 mmHg 66%
    17:00 +25°C° 0,1 mm 4 m/s 739 mmHg 72%
    18:00 +24°C° 0,1 mm 3 m/s 739 mmHg 77%
    19:00 +22°C° 0,1 mm 3 m/s 739 mmHg 83%
    20:00 +21°C° 0 mm 3 m/s 739 mmHg 86%
    21:00 +20°C° 0 mm 2 m/s 739 mmHg 88%
    22:00 +19°C° 0 mm 2 m/s 740 mmHg 91%
    23:00 +18°C° 0 mm 2 m/s 739 mmHg 92%

    21 Julho, Sábado

    Tempo Temperatura Precipitação Vento Pressão Humidade
    00:00 +18°C° 0 mm 2 m/s 739 mmHg 94%
    01:00 +18°C° 0 mm 2 m/s 739 mmHg 95%
    02:00 +17°C° 0 mm 2 m/s 739 mmHg 96%
    03:00 +17°C° 0 mm 2 m/s 739 mmHg 96%
    04:00 +17°C° 0 mm 2 m/s 739 mmHg 96%
    05:00 +18°C° 0 mm 2 m/s 739 mmHg 93%
    06:00 +20°C° 0 mm 2 m/s 739 mmHg 89%
    07:00 +21°C° 0 mm 2 m/s 739 mmHg 85%
    08:00 +23°C° 0 mm 2 m/s 739 mmHg 79%
    09:00 +25°C° 0 mm 2 m/s 739 mmHg 72%
    10:00 +26°C° 0 mm 2 m/s 739 mmHg 66%
    11:00 +27°C° 0,1 mm 2 m/s 739 mmHg 64%
    12:00 +27°C° 0,1 mm 2 m/s 739 mmHg 62%
    13:00 +28°C° 0,1 mm 1 m/s 739 mmHg 60%
    14:00 +28°C° 0,3 mm 1 m/s 739 mmHg 61%
    15:00 +28°C° 0,3 mm 1 m/s 738 mmHg 63%
    16:00 +28°C° 0,3 mm 1 m/s 738 mmHg 64%
    17:00 +26°C° 0,5 mm 1 m/s 738 mmHg 69%
    18:00 +25°C° 0,5 mm 1 m/s 738 mmHg 74%
    19:00 +22°C° 0,5 mm 0 m/s 738 mmHg 79%
    20:00 +21°C° 0,2 mm 0 m/s 738 mmHg 82%
    21:00 +20°C° 0,2 mm 0 m/s 738 mmHg 84%
    22:00 +19°C° 0,2 mm 0 m/s 738 mmHg 86%
    23:00 +18°C° 0 mm 0 m/s 738 mmHg 87%

    22 Julho, Domingo

    Tempo Temperatura Precipitação Vento Pressão Humidade
    00:00 +18°C° 0 mm 0 m/s 738 mmHg 88%
    01:00 +17°C° 0 mm 0 m/s 738 mmHg 89%
    02:00 +17°C° 0 mm 0 m/s 738 mmHg 90%
    03:00 +19°C° 0 mm 1 m/s 738 mmHg 90%
    04:00 +18°C° 0 mm 1 m/s 738 mmHg 91%
    05:00 +20°C° 0 mm 1 m/s 738 mmHg 87%
    06:00 +21°C° 0 mm 1 m/s 738 mmHg 84%
    07:00 +21°C° 0 mm 0 m/s 738 mmHg 81%
    08:00 +24°C° 0,1 mm 1 m/s 738 mmHg 76%
    09:00 +25°C° 0,1 mm 1 m/s 738 mmHg 71%
    10:00 +27°C° 0,1 mm 1 m/s 738 mmHg 66%
    11:00 +27°C° 0,4 mm 1 m/s 738 mmHg 65%
    12:00 +28°C° 0,4 mm 2 m/s 737 mmHg 64%
    13:00 +28°C° 0,4 mm 2 m/s 737 mmHg 63%
    14:00 +28°C° 0,7 mm 2 m/s 737 mmHg 65%
    15:00 +27°C° 0,7 mm 2 m/s 737 mmHg 67%
    16:00 +27°C° 0,7 mm 2 m/s 737 mmHg 69%
    17:00 +26°C° 0,2 mm 2 m/s 737 mmHg 72%
    18:00 +25°C° 0,2 mm 2 m/s 737 mmHg 75%
    19:00 +23°C° 0,2 mm 1 m/s 737 mmHg 78%
    20:00 +22°C° 0 mm 1 m/s 738 mmHg 80%
    21:00 +21°C° 0 mm 1 m/s 738 mmHg 81%
    22:00 +21°C° 0 mm 1 m/s 738 mmHg 82%
    23:00 +20°C° 0 mm 1 m/s 738 mmHg 84%

    23 Julho, Segunda-feira

    Tempo Temperatura Precipitação Vento Pressão Humidade
    00:00 +20°C° 0 mm 1 m/s 738 mmHg 85%
    01:00 +19°C° 0 mm 1 m/s 738 mmHg 87%
    02:00 +19°C° 0 mm 1 m/s 738 mmHg 88%
    03:00 +18°C° 0 mm 1 m/s 738 mmHg 89%
    04:00 +18°C° 0 mm 1 m/s 739 mmHg 91%
    05:00 +18°C° 0 mm 2 m/s 739 mmHg 89%
    06:00 +20°C° 0 mm 2 m/s 739 mmHg 87%
    07:00 +21°C° 0 mm 2 m/s 739 mmHg 84%
    08:00 +22°C° 0,1 mm 3 m/s 740 mmHg 78%
    09:00 +23°C° 0,1 mm 4 m/s 740 mmHg 72%
    10:00 +26°C° 0,1 mm 5 m/s 740 mmHg 66%
    11:00 +26°C° 0,1 mm 5 m/s 740 mmHg 64%
    12:00 +26°C° 0,1 mm 5 m/s 739 mmHg 61%
    13:00 +27°C° 0,1 mm 5 m/s 739 mmHg 59%
    14:00 +27°C° 0 mm 5 m/s 739 mmHg 60%
    15:00 +27°C° 0 mm 5 m/s 739 mmHg 61%
    16:00 +26°C° 0 mm 5 m/s 739 mmHg 61%
    17:00 +25°C° 0 mm 4 m/s 739 mmHg 66%
    18:00 +24°C° 0 mm 3 m/s 740 mmHg 72%
    19:00 +21°C° 0 mm 3 m/s 740 mmHg 77%
    20:00 +20°C° 0 mm 3 m/s 740 mmHg 79%
    21:00 +19°C° 0 mm 3 m/s 740 mmHg 81%
    22:00 +18°C° 0 mm 3 m/s 740 mmHg 83%
    23:00 +18°C° 0 mm 2 m/s 740 mmHg 86%
    Mostrar mais